Terminal Aerodrome Forecast
Issued by NWS Boston, MA

Home | Current Version | Previous Version | Text Only | Print | Product List | Glossary Off
Versions: 1 2 3 4 5 6 7 8 9 10 11 12 13 14 15 16 17 18 19 20 21 22 23 24 25 26 27 28 29 30 31 32 33 34 35 36 37 38 39 40 41 42
583 FTUS41 KBOX 170523 TAFORH TAF KORH 170523Z 1706/1806 26009KT P6SM FEW200 FM171200 VRB03KT P6SM SCT200 FM172000 09005KT 6SM -FZRASNPL BKN080 FM172300 09006KT 2SM -FZRASN OVC020 FM180500 07008KT 2SM -SNRA OVC008=

USA.gov is the U.S. government's official web portal to all federal, state and local government web resources and services.